TimeCST,TemperatureF,Dew PointF,Humidity,Sea Level PressureIn,VisibilityMPH,Wind Direction,Wind SpeedMPH,Gust SpeedMPH,PrecipitationIn,Events,Conditions,WindDirDegrees,DateUTC
12:15 AM,46.8,37.9,71,30.08,10.0,NW,6.9,-,N/A,,Clear,310,2012-11-06 06:15:00
12:35 AM,46.6,37.8,71,30.08,10.0,NNW,4.6,-,N/A,,Clear,330,2012-11-06 06:35:00
12:55 AM,45.1,37.4,74,30.07,10.0,NW,4.6,-,N/A,,Clear,310,2012-11-06 06:55:00
1:15 AM,44.6,37.2,75,30.07,10.0,NW,5.8,-,N/A,,Clear,310,2012-11-06 07:15:00
1:35 AM,43.5,36.9,77,30.09,10.0,WNW,4.6,-,N/A,,Clear,290,2012-11-06 07:35:00
1:55 AM,43.2,36.7,78,30.09,10.0,WNW,5.8,-,N/A,,Clear,300,2012-11-06 07:55:00
2:15 AM,44.1,36.5,75,30.09,10.0,NNW,3.5,-,N/A,,Clear,340,2012-11-06 08:15:00
2:35 AM,42.8,36.1,77,30.09,10.0,NNW,3.5,-,N/A,,Clear,340,2012-11-06 08:35:00
2:55 AM,42.8,36.1,77,30.08,10.0,North,4.6,-,N/A,,Clear,10,2012-11-06 08:55:00
3:15 AM,42.4,36.1,78,30.08,10.0,North,3.5,-,N/A,,Clear,350,2012-11-06 09:15:00
3:35 AM,41.9,36.1,80,30.08,10.0,NNW,3.5,-,N/A,,Clear,340,2012-11-06 09:35:00
3:55 AM,40.3,35.6,83,30.09,10.0,NW,4.6,-,N/A,,Clear,310,2012-11-06 09:55:00
4:15 AM,41.2,36.0,82,30.09,10.0,NNW,4.6,-,N/A,,Clear,330,2012-11-06 10:15:00
4:35 AM,39.7,35.6,85,30.10,10.0,NW,5.8,-,N/A,,Clear,320,2012-11-06 10:35:00
4:55 AM,39.9,35.8,85,30.10,10.0,NW,4.6,-,N/A,,Clear,320,2012-11-06 10:55:00
5:35 AM,40.1,36.1,86,30.11,10.0,NW,3.5,-,N/A,,Clear,310,2012-11-06 11:35:00
5:55 AM,39.2,35.8,88,30.11,10.0,NW,3.5,-,N/A,,Clear,310,2012-11-06 11:55:00
6:15 AM,38.3,35.8,91,30.11,10.0,WNW,5.8,-,N/A,,Clear,300,2012-11-06 12:15:00
6:35 AM,38.3,36.0,91,30.12,10.0,WNW,5.8,-,N/A,,Clear,290,2012-11-06 12:35:00
6:55 AM,38.8,36.5,91,30.12,10.0,NW,3.5,-,N/A,,Clear,310,2012-11-06 12:55:00
7:15 AM,39.6,36.7,89,30.12,10.0,WNW,3.5,-,N/A,,Clear,290,2012-11-06 13:15:00
7:35 AM,41.2,37.8,88,30.13,10.0,WNW,3.5,-,N/A,,Clear,300,2012-11-06 13:35:00
7:55 AM,43.2,38.8,85,30.14,10.0,NW,3.5,-,N/A,,Clear,320,2012-11-06 13:55:00
8:15 AM,45.5,39.9,81,30.15,10.0,North,6.9,-,N/A,,Clear,350,2012-11-06 14:15:00
8:35 AM,47.5,40.1,76,30.15,10.0,NW,6.9,-,N/A,,Clear,320,2012-11-06 14:35:00
8:55 AM,49.5,40.5,71,30.16,10.0,NW,6.9,-,N/A,,Clear,310,2012-11-06 14:55:00
9:15 AM,50.7,40.3,67,30.17,10.0,NNW,6.9,-,N/A,,Clear,330,2012-11-06 15:15:00
9:35 AM,51.4,40.1,65,30.16,10.0,Calm,Calm,-,N/A,,Clear,0,2012-11-06 15:35:00
9:55 AM,52.7,39.6,61,30.16,10.0,NW,3.5,-,N/A,,Clear,310,2012-11-06 15:55:00
10:15 AM,54.3,39.9,58,30.15,10.0,Calm,Calm,-,N/A,,Clear,0,2012-11-06 16:15:00
10:35 AM,55.4,39.4,55,30.14,10.0,North,5.8,-,N/A,,Clear,360,2012-11-06 16:35:00
10:55 AM,56.7,39.6,53,30.14,10.0,NNW,6.9,-,N/A,,Clear,330,2012-11-06 16:55:00
11:15 AM,57.7,39.4,50,30.13,10.0,North,3.5,-,N/A,,Clear,10,2012-11-06 17:15:00
11:35 AM,59.4,39.6,48,30.12,10.0,WNW,4.6,-,N/A,,Clear,300,2012-11-06 17:35:00
11:55 AM,60.4,39.6,46,30.11,10.0,WNW,4.6,-,N/A,,Clear,290,2012-11-06 17:55:00
12:15 PM,60.8,39.6,46,30.10,10.0,West,4.6,-,N/A,,Clear,260,2012-11-06 18:15:00
12:35 PM,62.4,39.4,43,30.09,10.0,NW,3.5,-,N/A,,Clear,320,2012-11-06 18:35:00
12:55 PM,63.5,39.6,41,30.08,10.0,WNW,4.6,-,N/A,,Clear,300,2012-11-06 18:55:00
1:15 PM,64.0,39.4,40,30.07,10.0,West,4.6,-,N/A,,Clear,280,2012-11-06 19:15:00
1:35 PM,65.3,39.6,39,30.06,10.0,WNW,5.8,-,N/A,,Clear,300,2012-11-06 19:35:00
1:55 PM,65.7,38.8,37,30.06,10.0,WNW,6.9,-,N/A,,Clear,290,2012-11-06 19:55:00
2:15 PM,66.9,39.2,36,30.04,10.0,West,8.1,-,N/A,,Clear,270,2012-11-06 20:15:00
2:35 PM,67.8,38.8,35,30.03,10.0,WNW,8.1,-,N/A,,Clear,290,2012-11-06 20:35:00
2:55 PM,67.8,38.7,34,30.03,10.0,West,6.9,-,N/A,,Clear,280,2012-11-06 20:55:00
3:15 PM,68.4,38.8,34,30.04,10.0,West,10.4,-,N/A,,Clear,270,2012-11-06 21:15:00
3:35 PM,68.9,39.0,34,30.04,10.0,West,6.9,-,N/A,,Clear,270,2012-11-06 21:35:00
3:55 PM,68.4,38.8,34,30.03,10.0,WNW,9.2,-,N/A,,Clear,290,2012-11-06 21:55:00
4:15 PM,68.0,39.2,35,30.04,10.0,WNW,10.4,-,N/A,,Clear,300,2012-11-06 22:15:00
4:35 PM,67.1,38.5,35,30.04,10.0,WNW,6.9,-,N/A,,Clear,290,2012-11-06 22:35:00
4:55 PM,66.4,38.3,36,30.03,10.0,WNW,5.8,-,N/A,,Clear,290,2012-11-06 22:55:00
5:15 PM,64.0,38.5,39,30.04,10.0,WNW,4.6,-,N/A,,Clear,300,2012-11-06 23:15:00
5:35 PM,63.1,38.5,40,30.04,10.0,WNW,4.6,-,N/A,,Clear,300,2012-11-06 23:35:00
5:55 PM,61.7,38.7,43,30.05,10.0,Calm,Calm,-,N/A,,Clear,0,2012-11-06 23:55:00
6:15 PM,60.6,38.5,44,30.05,10.0,Calm,Calm,-,N/A,,Clear,0,2012-11-07 00:15:00
6:35 PM,59.7,39.2,47,30.06,10.0,West,3.5,-,N/A,,Clear,270,2012-11-07 00:35:00
6:55 PM,59.4,39.2,47,30.06,10.0,West,3.5,-,N/A,,Clear,280,2012-11-07 00:55:00
7:15 PM,59.0,39.0,48,30.06,10.0,Calm,Calm,-,N/A,,Clear,0,2012-11-07 01:15:00
7:35 PM,57.6,39.2,50,30.06,10.0,West,4.6,-,N/A,,Clear,270,2012-11-07 01:35:00
7:55 PM,57.7,39.4,50,30.06,10.0,West,4.6,-,N/A,,Clear,280,2012-11-07 01:55:00
8:15 PM,57.2,39.4,51,30.06,10.0,West,4.6,-,N/A,,Clear,270,2012-11-07 02:15:00
8:35 PM,57.2,39.4,51,30.07,10.0,WNW,4.6,-,N/A,,Clear,290,2012-11-07 02:35:00
8:55 PM,56.3,39.4,53,30.07,10.0,WNW,5.8,-,N/A,,Clear,290,2012-11-07 02:55:00
9:15 PM,56.1,39.6,54,30.07,10.0,WNW,4.6,-,N/A,,Clear,290,2012-11-07 03:15:00
9:35 PM,55.4,39.9,56,30.08,10.0,WNW,5.8,-,N/A,,Clear,300,2012-11-07 03:35:00
9:55 PM,54.9,39.7,57,30.09,10.0,NW,4.6,-,N/A,,Clear,310,2012-11-07 03:55:00
10:15 PM,54.9,40.1,58,30.09,10.0,NW,5.8,-,N/A,,Clear,320,2012-11-07 04:15:00
10:35 PM,55.4,39.7,56,30.10,10.0,NW,4.6,-,N/A,,Clear,320,2012-11-07 04:35:00
10:55 PM,54.7,40.1,58,30.10,10.0,NNW,5.8,-,N/A,,Clear,330,2012-11-07 04:55:00
11:15 PM,53.2,39.7,60,30.10,10.0,NNW,4.6,-,N/A,,Clear,330,2012-11-07 05:15:00
11:35 PM,51.8,40.1,64,30.10,10.0,NNW,5.8,-,N/A,,Clear,330,2012-11-07 05:35:00
11:55 PM,50.9,40.1,67,30.11,10.0,NNW,5.8,-,N/A,,Clear,330,2012-11-07 05:55:00